Location: Croisilles
(50.1998°N, 2.8793°E)
Time: 12:05:50
(UTC+00:00)

COSMO-SKYMED 1 - Pass Details

Date: 21 January 2021
Orbit: 621 x 623 km, 97.9° (Epoch: 27 February)

Event Time Altitude Azimuth Distance (km) Brightness Sun altitude
Exits shadow 18:13:38 - 12° (NNE) 2,619 5.6 -17.2°
Reaches altitude 10° 18:15:07 10° 11° (NNE) 2,006 5.0 -17.4°
Maximum altitude 18:19:29 78° 287° (WNW) 644 2.7 -18.1°
Drops below altitude 10° 18:23:48 10° 201° (SSW) 1,989 5.5 -18.8°
Sets 18:25:59 0° 200° (SSW) 2,890 6.4 -19.1°
